Probability
0 0 0 0 0 0 0 0 0 0 0 0 0 0 0 0 0 0 0 0 0 0 0 0 0 0 0 0 0 0 0 0 0 0 0 0 0 0
0 0 0 0 0 0 0 0 0 0 0 0 0 0 0 0 0 0 0 0 0 0 0 0 0 0 0 0 0 0 0 0 0 0 0 0 0 0
0 0 0 0 0 0 0 0 0 0 0 0 0 0 0 0 0 0 0 0 0 0 0 0 0 0 0 0 0 0 0 0 0 0 0 0 0 0
0 0 0 0 0 0 0 0 0 0 0 0 0 0 0 0 0 0 0 0 0 0 0 0 0 0 0 0 0 0 0 0 0 0 0 0 0 0
0 0 0 0 0 0 0 0 0 0 0 0 0 0 0 0 0 0 0 0 0 0 0 0 0 0 0 0 0 0 0 0 0 0 0 0 0 0
0 0 0 0 0 0 0 0 0 0 0 0 0 0 0 0 0 0 0 0 0 0 0 0 0 0 0 0 0 0 0 0 0 0 0 0 0 0
0 0 0 0 0 0 0 0 0 0 0 0 0 0 0 0 0 0 0 0 0 0 0 0 0 0 0 0 0 0 0 0 0 0 0 0 0 0
0 0 0 0 0 0 0 0 0 0 0 0 0 0 0 0 0 0 0 0 0 0 0 0 0 0 0 0 0 0 0 0 0 0 0 0 0 0
0 0 0 0 0 0 0 0 0 0 0 0 0 0 0 0 0 0 0 0 0 0 0 0 0 0 0 0 0 0 0 0 0 0 0 0 0 0
0 0 0 0 0 0 0 0 0 0 0 0 0 0 0 0 0 0 0 0 0 0 0 0 0 0 0 0 0 0 0 0 0 0 0 0 0 0
0 0 0 0 0 0 0 0 0 0 0 0 0 0 0 0 0 0 0 0 0 0 0 0 0 0 0 0 0 0 0 0 0 0 0 0 0 0
0 0 0 0 0 0 0 0 0 0 0 0 0 0 0 0 0 0 0 0 0 0 0 0 0 0 0 0 0 0 0 0 0 0 0 0 0 0
0 0 0 0 0 0 0 0 0 0 0 0 0 0 0 0 0 0 0 0 0 0 0 0 0 0 0 0 0 0 0 0 0 0 0 0 0 0
0 0 0 0 0 0 0 0 0 0 0 0 0 0 0 0 0 0 0 0 0 0 0 0 0 0 0 0 0 0 0 0 0 0 0 0 0 0
0 0 0 0 0 0 0 0 0 0 0 0 0 0 0 0 0 0 0 0 0 0 0 0 0 0 0 0 0 0 0 0 0 0 0 0 0 0
0 0 0 0 0 0 0 0 0 0 0 0 0 0 0 0 0 0 0 0 0 0 0 0 0 0 0 0 0 0 0 0 0 0 0 0 0 0
0 0 0 0 0 0 0 0 0 0 0 0 0 0 0 0 0 0 0 0 0 0 0 0 0 0 0 0 0 0 0 0 0 0 0 0 0 0
0 0 0 0 0 0 0 0 0 0 0 0 0 0 0 0 0 0 0 0 0 0 0 0 0 0 0 0 0 0 0 0 0 0 0 0 0 0
0 0 0 0 0 0 0 0 0 0 0 0 0 0 0 0 0 0 0 0 0 0 0 0 0 0 0 0 0 0 0 0 0 0 0 0 0 0
0 0 0 0 0 0 0 0 0 0 0 0 0 0 0 0 0 0 0 0 0 0 0 0 0 0 0 0 0 0 0 0 0 0 0 0 0 0
0 0 0 0 0 0 0 0 0 0 0 0 0 0 0 0 0 0 0 0 0 0 0 0 0 0 0 0 0 0 0 0 0 0 0 0 0 0
0 0 0 0 0 0 0 0 0 0 0 0 0 0 0 0 0 0 0 0 0 0 0 0 0 0 0 0 0 0 0 0 0 0 0 0 0 0
0 0 0 0 0 0 0 0 0 0 0 0 0 0 0 0 0 0 0 0 0 0 0 0 0 0 0 0 0 0 0 0 0 0 0 0 0 0
Height
5648 5648 5648 5648 5648 5648 5648 5648 5649 5649 5650 5649 5648 5648 5648 5648 5649 5650 5651 5653 5654 5656 5658 5661 5663 5666 5668 5671 5674 5676 5679 5682 5685 5688 5691 5693 5696 5699
5639 5638 5638 5638 5638 5637 5637 5637 5636 5636 5637 5637 5636 5635 5634 5634 5634 5635 5636 5638 5639 5641 5643 5645 5647 5650 5653 5655 5658 5661 5663 5667 5670 5674 5677 5680 5683 5686
5630 5629 5628 5628 5627 5626 5626 5625 5624 5623 5623 5623 5622 5621 5621 5620 5620 5620 5621 5622 5624 5625 5627 5629 5631 5633 5636 5639 5642 5644 5648 5651 5655 5658 5662 5666 5669 5673
5621 5619 5618 5617 5616 5615 5613 5612 5611 5610 5610 5609 5609 5607 5606 5606 5605 5605 5605 5606 5607 5609 5610 5612 5614 5616 5618 5621 5624 5627 5631 5634 5638 5642 5646 5651 5655 5658
5611 5610 5608 5606 5604 5603 5601 5599 5598 5597 5596 5595 5594 5593 5591 5590 5590 5589 5589 5590 5591 5592 5593 5595 5596 5598 5600 5602 5606 5609 5613 5617 5621 5625 5628 5633 5638 5643
5602 5599 5597 5595 5592 5590 5588 5586 5584 5583 5581 5580 5579 5578 5576 5574 5573 5573 5573 5572 5573 5574 5575 5576 5577 5579 5581 5584 5587 5590 5593 5597 5601 5606 5610 5615 5621 5626
5591 5588 5586 5583 5580 5578 5575 5573 5570 5568 5566 5565 5563 5562 5560 5557 5556 5555 5555 5555 5555 5554 5555 5556 5558 5560 5561 5564 5566 5569 5573 5577 5581 5586 5591 5596 5602 5608
5581 5577 5574 5570 5567 5565 5562 5559 5556 5553 5551 5549 5546 5544 5542 5540 5538 5536 5535 5536 5537 5536 5535 5537 5537 5539 5540 5542 5545 5548 5552 5556 5561 5566 5571 5576 5582 5589
5570 5566 5562 5558 5554 5551 5547 5544 5541 5537 5535 5532 5529 5526 5524 5521 5519 5517 5515 5514 5515 5513 5513 5516 5515 5516 5518 5520 5523 5526 5530 5535 5540 5545 5550 5556 5562 5569
5558 5554 5549 5545 5541 5537 5534 5529 5525 5521 5517 5514 5511 5507 5504 5500 5497 5496 5494 5494 5493 5491 5489 5492 5493 5493 5496 5498 5500 5503 5507 5512 5517 5523 5529 5535 5541 5549
5546 5541 5536 5532 5527 5523 5519 5515 5510 5505 5500 5495 5492 5487 5483 5479 5476 5474 5472 5471 5471 5470 5467 5467 5469 5469 5473 5476 5477 5480 5483 5489 5494 5499 5506 5513 5520 5528
5533 5528 5523 5518 5513 5508 5503 5499 5494 5489 5483 5478 5473 5469 5464 5459 5455 5452 5450 5448 5447 5447 5445 5444 5444 5444 5449 5454 5454 5456 5460 5465 5470 5476 5483 5490 5498 5506
5520 5515 5509 5504 5498 5493 5487 5482 5477 5472 5466 5461 5456 5451 5446 5441 5436 5432 5429 5426 5425 5424 5423 5421 5421 5421 5423 5430 5433 5434 5437 5441 5446 5453 5460 5467 5475 5483
5508 5502 5496 5490 5484 5478 5471 5466 5460 5454 5448 5443 5438 5432 5427 5422 5418 5413 5410 5406 5404 5402 5400 5399 5399 5399 5401 5405 5411 5414 5416 5419 5424 5430 5437 5444 5452 5460
5494 5488 5482 5475 5469 5462 5456 5449 5443 5437 5431 5425 5420 5414 5409 5403 5399 5395 5391 5387 5384 5381 5379 5378 5378 5379 5381 5384 5389 5392 5396 5400 5403 5409 5415 5423 5430 5438
5480 5474 5467 5460 5453 5447 5440 5433 5426 5420 5414 5409 5403 5397 5391 5386 5381 5376 5373 5369 5367 5364 5361 5360 5360 5361 5363 5365 5368 5373 5376 5380 5385 5389 5395 5403 5410 5417
5467 5460 5453 5446 5439 5431 5424 5418 5411 5404 5398 5392 5386 5380 5374 5369 5364 5359 5355 5352 5350 5349 5346 5344 5343 5344 5345 5348 5351 5354 5357 5361 5366 5371 5376 5383 5391 5398
5453 5446 5439 5432 5424 5417 5410 5403 5396 5389 5383 5377 5370 5365 5359 5353 5348 5343 5339 5336 5334 5332 5330 5329 5328 5328 5330 5332 5335 5337 5340 5344 5348 5353 5358 5365 5373 5380
5440 5433 5425 5418 5411 5404 5396 5390 5383 5376 5369 5363 5357 5351 5345 5339 5334 5330 5325 5322 5320 5318 5315 5313 5312 5312 5314 5318 5321 5321 5323 5327 5331 5336 5341 5348 5355 5363
5427 5420 5412 5405 5398 5390 5383 5376 5370 5363 5356 5350 5344 5337 5332 5327 5322 5317 5313 5309 5307 5304 5302 5300 5298 5298 5300 5303 5307 5309 5309 5313 5317 5322 5327 5332 5339 5346
5415 5408 5400 5393 5385 5378 5371 5364 5357 5351 5344 5338 5331 5325 5320 5315 5310 5306 5302 5298 5295 5293 5291 5289 5287 5286 5287 5290 5294 5297 5299 5301 5305 5309 5315 5319 5325 5331
5404 5397 5389 5382 5374 5367 5360 5353 5346 5339 5333 5327 5321 5315 5309 5304 5300 5296 5292 5288 5285 5282 5281 5279 5277 5276 5277 5279 5282 5286 5289 5292 5295 5298 5303 5309 5314 5321
5394 5386 5379 5371 5364 5357 5350 5343 5336 5330 5323 5317 5311 5306 5300 5295 5291 5287 5283 5279 5276 5274 5272 5271 5269 5268 5268 5270 5273 5276 5280 5283 5286 5290 5295 5300 5306 5312
Wind_Speed
39 40 42 43 45 45 45 45 46 46 47 49 50 51 52 54 55 55 54 53 53 54 54 54 54 53 53 52 53 53 51 50 48 47 46 45 44 43
38 39 41 42 43 44 45 45 47 48 48 49 50 52 53 54 55 56 57 57 56 55 56 56 55 55 54 53 53 54 53 52 51 50 49 47 46 44
37 38 40 42 43 44 45 46 47 47 48 48 49 51 52 53 54 55 57 57 57 56 56 56 57 57 56 56 56 55 54 54 54 54 53 51 49 48
37 38 40 41 43 45 46 46 47 48 48 48 48 50 51 53 54 55 55 56 57 56 56 57 58 58 58 58 57 57 56 57 57 56 55 54 52 51
37 39 40 41 43 44 45 46 47 48 49 49 50 50 51 51 52 53 55 56 58 58 59 59 58 58 59 59 59 58 58 59 58 58 57 57 55 54
38 38 39 41 42 43 45 46 47 48 49 50 50 51 52 52 53 54 55 56 58 60 60 60 60 60 61 62 61 61 61 61 60 59 59 59 59 57
38 39 41 41 42 43 44 46 47 48 50 51 52 53 54 54 55 55 56 57 58 60 61 61 61 62 62 63 64 63 64 63 62 61 61 61 61 59
39 40 41 42 43 44 45 47 48 49 51 53 54 55 56 57 57 58 58 58 59 60 61 61 62 63 64 64 64 64 64 64 63 63 63 62 61 61
41 42 42 43 44 45 46 47 49 50 52 53 55 56 57 58 59 59 60 60 60 62 63 63 63 63 65 66 66 65 64 66 66 65 64 64 63 63
43 43 44 45 45 46 48 49 51 53 54 55 56 57 58 59 60 61 62 62 62 63 64 64 64 65 64 65 66 68 68 67 67 67 66 66 66 65
45 45 46 46 47 48 48 50 52 53 55 56 57 58 58 59 60 60 61 62 62 62 64 64 64 65 64 64 65 66 68 69 68 67 67 67 67 67
46 47 47 47 48 49 50 51 52 53 54 55 57 57 58 58 59 59 60 61 62 61 62 63 63 63 63 62 63 65 67 68 68 68 68 68 69 69
46 47 48 49 49 51 52 52 53 54 54 55 56 56 56 57 57 58 58 59 60 60 60 61 61 62 61 60 60 63 65 67 67 67 67 68 70 71
47 48 49 50 51 52 53 53 54 54 54 54 55 55 55 55 55 56 56 57 57 57 57 58 58 58 58 58 57 59 61 62 64 64 65 67 68 69
48 49 50 51 52 53 53 54 54 53 53 53 52 52 53 53 54 54 54 55 54 54 53 53 53 53 53 53 53 55 56 57 59 61 62 63 64 66
49 50 51 52 52 53 53 52 52 51 51 51 51 51 51 51 52 52 51 50 49 49 49 49 48 49 49 49 50 50 53 54 56 58 59 59 59 61
50 50 51 52 52 51 51 51 51 51 51 51 50 50 49 49 49 48 47 46 46 45 46 46 46 46 47 47 46 47 49 51 52 53 55 55 56 58
50 50 51 51 50 50 50 50 50 49 49 49 48 48 47 46 45 44 44 43 42 42 43 43 44 44 44 44 45 45 46 48 49 51 51 52 53 55
49 50 50 49 50 49 49 48 48 47 47 46 46 45 44 43 42 41 40 40 39 39 39 40 41 41 41 40 40 41 42 44 45 47 49 50 50 52
49 49 49 48 48 48 47 47 46 46 45 45 44 43 42 41 39 38 37 36 35 35 35 36 36 36 36 36 36 37 39 40 41 43 45 46 47 49
48 48 48 48 47 47 46 45 45 44 43 42 42 41 40 38 36 35 34 33 32 31 31 31 31 31 32 33 33 34 36 37 38 39 40 42 42 45
47 47 47 47 46 44 43 42 42 41 40 39 39 38 37 35 33 32 31 30 29 28 27 27 26 27 28 30 30 30 31 33 34 34 36 38 38 39
45 45 45 45 44 42 41 40 40 39 38 37 36 35 34 32 31 29 28 27 25 24 24 23 23 24 24 26 27 27 28 29 30 30 31 33 35 36
Wind_Direction
272 271 269 269 271 272 273 271 271 270 269 269 269 269 268 266 266 265 264 262 263 262 261 260 259 259 258 257 257 257 256 256 257 257 255 255 256 256
275 273 272 272 273 273 273 272 272 271 271 270 269 269 268 268 267 266 264 263 262 261 260 259 260 259 258 258 258 258 256 256 255 254 253 253 253 254
277 275 275 274 274 273 274 273 274 273 272 272 271 269 269 269 268 267 266 264 263 262 260 259 258 258 258 258 258 256 255 255 253 252 251 252 252 251
282 281 279 278 276 275 275 274 274 274 273 272 272 272 271 270 269 267 267 266 264 263 261 260 259 258 257 257 256 255 254 253 252 252 250 249 249 249
286 284 283 281 280 279 278 277 276 275 274 274 274 274 273 271 270 268 268 267 264 263 262 262 260 259 259 257 254 254 254 253 252 251 250 249 248 248
290 288 286 284 283 281 280 279 279 278 277 276 275 275 274 273 272 271 269 268 265 264 263 263 262 260 259 258 255 254 253 253 253 252 251 250 249 248
292 291 289 287 285 283 282 281 281 280 279 278 277 276 275 275 274 273 271 269 268 266 264 263 262 260 259 258 256 255 254 253 253 252 252 251 249 247
295 294 292 290 287 285 284 284 283 282 282 281 280 278 277 276 275 274 272 271 269 267 265 264 263 261 259 257 256 254 253 252 252 251 250 249 247 245
297 295 294 293 291 289 287 286 286 286 285 283 282 281 280 278 276 275 273 272 270 268 266 265 264 262 259 257 255 253 252 252 251 250 249 248 245 244
298 297 296 295 293 291 290 289 288 288 287 285 284 283 282 281 279 276 274 272 271 270 268 266 264 262 259 257 255 253 251 250 250 248 247 247 245 243
298 298 297 296 295 294 293 292 291 290 289 288 287 286 284 283 280 278 276 274 273 271 269 267 265 262 258 256 255 253 252 250 249 248 246 246 245 243
300 299 298 297 296 296 295 295 293 292 290 289 288 287 286 284 282 280 278 276 275 273 271 269 266 263 259 257 255 253 251 250 249 247 246 245 243 243
301 301 300 299 299 298 297 296 295 294 292 291 290 288 287 286 284 282 281 279 277 275 273 270 267 263 260 257 254 252 250 249 248 247 245 244 243 242
303 303 302 301 301 300 299 298 297 295 295 294 292 290 288 287 285 283 282 280 278 276 273 270 267 264 261 258 254 251 250 248 248 246 245 243 242 241
305 305 305 304 303 302 301 300 298 297 297 296 295 294 291 289 287 285 283 281 279 277 274 271 268 264 261 258 254 251 249 247 247 245 244 243 242 241
307 307 307 306 305 304 303 302 301 300 300 299 298 296 294 292 290 287 285 282 280 277 276 273 269 265 261 257 254 250 248 247 245 244 243 241 240 240
308 308 308 308 307 306 305 304 303 303 302 301 300 299 297 295 292 289 286 283 280 277 275 273 270 267 262 258 255 252 249 247 244 243 241 240 239 238
309 309 309 309 308 308 307 306 306 305 304 303 302 301 299 297 295 291 288 286 283 279 276 273 271 267 262 258 256 253 250 248 245 242 241 239 236 236
311 311 311 310 310 309 308 308 307 307 306 305 304 302 301 300 298 295 291 288 285 282 279 275 272 267 261 256 254 252 250 246 244 242 240 239 238 235
313 313 313 312 312 311 310 309 308 308 307 307 306 304 303 301 300 298 295 292 288 284 281 279 275 268 261 255 250 247 247 245 242 240 239 238 237 235
314 315 315 314 313 312 311 311 310 309 308 308 307 306 305 303 301 300 298 295 291 287 284 281 276 270 262 254 249 246 244 243 241 240 238 237 235 232
315 316 316 316 315 315 314 313 313 312 311 310 310 309 308 306 304 302 301 298 295 290 285 281 277 272 263 253 247 243 241 240 241 240 237 234 231 229
316 317 317 317 317 316 316 316 315 314 313 312 312 312 311 309 306 305 304 301 298 294 288 282 279 275 265 252 244 239 237 237 237 236 233 230 227 225